[[{"header":{"parameterUnit":"m.s-1","parameterCategory":1,"la1":30.2991,"la2":30.254,"lo1":-89.0895,"lo2":-89.0444,"dy":0.0017,"dx":0.0017,"nx":28,"ny":28,"refTime":"2025-06-11T03:00:00:Z","depth":0,"parameterNumber":2,"parameterNumberName":"U-component_of_WINDS"},"data":[0,0,0,0,0,0,0,0,0,0,0,0,0,0,0,0,0,0,0,0,0,0,0,0,0,0,0,0,0,0,0,0,0,0,0,0,0,0,0,0,0,0,0,0,0,0,0,0,0,0,0,0,0,0,0,0,0,0,-0.795,-0.7951,0,-0.8044,-0.8045,-0.8046,-0.8092,-0.8093,-0.8093,-0.8093,-0.819,-0.8193,-0.8195,0,0,0,0,0,0,0,0,0,0,0,0,0,-0.7814,-0.7817,-0.795,-0.7951,-0.7952,-0.8043,-0.8045,-0.8046,-0.8092,-0.8093,-0.8093,-0.8093,-0.8189,-0.8192,-0.8195,0,0,0,0,0,0,0,0,0,0,0,0,0,-0.7887,-0.7817,-0.795,-0.7986,-0.7991,-0.8043,-0.8045,-0.8046,-0.8092,-0.8093,-0.8093,-0.8093,-0.8188,-0.8192,-0.8196,-0.8219,0,0,-0.8208,-0.8209,0,0,0,0,0,0,0,0,-0.7883,-0.7892,-0.798,-0.7984,-0.7989,-0.8056,-0.8033,-0.8104,-0.8092,-0.8054,-0.8093,-0.8093,-0.8146,-0.8153,-0.8171,-0.8224,-0.8228,-0.8208,-0.821,-0.8212,-0.8213,0,0,0,0,0,0,0,-0.7878,-0.7888,-0.7987,-0.7981,-0.7987,-0.7999,-0.8009,-0.8046,-0.8099,-0.8057,-0.8061,-0.8071,-0.8148,-0.8167,-0.8173,-0.823,-0.8208,-0.8211,-0.8214,-0.8215,-0.8308,-0.8308,0,0,0,0,0,0,-0.7867,-0.7884,-0.7984,-0.799,-0.7935,-0.8002,-0.8013,-0.8035,-0.8098,-0.8108,-0.8071,-0.8073,-0.816,-0.8169,-0.8177,-0.8209,-0.8212,-0.8216,-0.8218,-0.8308,-0.8308,-0.8308,0,0,0,0,0,0,-0.7863,-0.7875,-0.798,-0.7938,-0.7952,-0.8004,-0.8028,-0.8037,-0.8055,-0.8109,-0.8118,-0.808,-0.816,-0.8171,-0.8209,-0.8213,-0.8217,-0.8221,-0.8308,-0.8308,-0.8308,-0.8274,0,0,0,0,0,0,-0.7859,-0.7874,-0.7882,-0.7938,-0.7954,-0.801,-0.8028,-0.8038,-0.8062,-0.8065,-0.812,-0.8129,-0.8161,-0.8203,-0.8212,-0.8219,-0.8224,-0.8308,-0.8308,-0.8308,-0.8275,-0.8273,-0.8271,0,0,0,0,0,-0.7854,-0.7869,-0.7883,-0.7894,-0.7966,-0.801,-0.8019,-0.8056,-0.8062,-0.8072,-0.8106,-0.8127,-0.8211,-0.8206,-0.8217,-0.8225,-0.8307,-0.8308,-0.8308,-0.8276,-0.8273,-0.8271,0,0,0,0,0,0,-0.7814,-0.7877,-0.7893,-0.7926,-0.7962,-0.8018,-0.8031,-0.8052,-0.8087,-0.8089,-0.8133,-0.8145,-0.8179,-0.8206,-0.8199,-0.8252,-0.8261,-0.8264,-0.8233,-0.8231,-0.8229,-0.8222,-0.8227,0,0,0,0,0,-0.7809,-0.7838,-0.7892,-0.7916,-0.7933,-0.7979,-0.7999,-0.8024,-0.8063,-0.8079,-0.8117,-0.8155,-0.819,-0.8212,-0.8247,-0.8279,-0.8292,-0.829,-0.8288,-0.8286,-0.8288,-0.8308,-0.8308,-0.8309,-0.8309,-0.8309,0,0,-0.7799,-0.7837,-0.7853,-0.7909,-0.794,-0.797,-0.7991,-0.8022,-0.8046,-0.8084,-0.8122,-0.815,-0.8196,-0.823,-0.8248,-0.8254,-0.8291,-0.8287,-0.8285,-0.8288,-0.8308,-0.8308,-0.8308,-0.8309,-0.8309,-0.8309,0,0,-0.7796,-0.7827,-0.7851,-0.7881,-0.7928,-0.7958,-0.7964,-0.8016,-0.8037,-0.8075,-0.8105,-0.8133,-0.8192,-0.8224,-0.8247,-0.8257,-0.8278,-0.8267,-0.8258,-0.8277,-0.8277,-0.8277,-0.8281,-0.8282,-0.8269,-0.8269,-0.8269,0,-0.7777,-0.7823,-0.7861,-0.789,-0.7914,-0.795,-0.7975,-0.8003,-0.8059,-0.8075,-0.8081,-0.8157,-0.819,-0.8233,-0.8235,-0.8253,-0.8262,-0.8261,-0.8273,-0.8274,-0.8275,-0.8279,-0.828,-0.8267,-0.8267,-0.8267,-0.8268,0,-0.7799,-0.783,-0.7844,-0.7896,-0.7922,-0.7949,-0.7992,-0.8013,-0.8036,-0.8066,-0.8105,-0.8146,-0.819,-0.8202,-0.8225,-0.8249,-0.8251,-0.8265,-0.8276,-0.8272,-0.8277,-0.8279,-0.8265,-0.8265,-0.8266,-0.8266,0,0,-0.7773,-0.7846,-0.785,-0.7875,-0.7929,-0.7954,-0.7983,-0.8026,-0.8044,-0.8082,-0.8108,-0.8157,-0.817,-0.8197,-0.8224,-0.824,-0.8246,-0.8252,-0.8254,-0.825,-0.8276,-0.8265,-0.8267,-0.826,-0.826,-0.8261,-0.8272,0,-0.7778,-0.7831,-0.7865,-0.7905,-0.7935,-0.797,-0.7995,-0.8032,-0.806,-0.8091,-0.8123,-0.8158,-0.8172,-0.8188,-0.8206,-0.8241,-0.8252,-0.8241,-0.8286,-0.8287,-0.8273,-0.8269,-0.8259,-0.8267,-0.8274,-0.8275,-0.8275,0,-0.7791,-0.7826,-0.7869,-0.792,-0.7934,-0.7956,-0.7999,-0.8027,-0.8069,-0.8089,-0.8119,-0.8146,-0.8179,-0.8187,-0.8234,-0.8226,-0.8246,-0.8266,-0.8267,-0.8273,-0.8281,-0.8276,-0.8271,-0.8272,-0.8278,-0.8278,-0.8278,0,-0.7768,-0.7827,-0.786,-0.788,-0.794,-0.7955,-0.7981,-0.8024,-0.8048,-0.8085,-0.8101,-0.8142,-0.8165,-0.8196,-0.8234,-0.8236,-0.8277,-0.8287,-0.8295,-0.8294,-0.8303,-0.8302,-0.8301,-0.8315,-0.8315,-0.8315,-0.8315,0,-0.777,-0.7795,-0.7851,-0.7871,-0.79,-0.7941,-0.7968,-0.7998,-0.8035,-0.8062,-0.8095,-0.812,-0.8168,-0.82,-0.8229,-0.8264,-0.8274,-0.8291,-0.8299,-0.8289,-0.8286,-0.8303,-0.8304,-0.8315,-0.8315,-0.8315,-0.8315,0,-0.775,-0.7789,-0.7827,-0.7881,-0.7895,-0.7914,-0.7961,-0.7983,-0.8013,-0.8048,-0.8058,-0.8107,-0.8145,-0.8186,-0.8238,-0.8258,-0.8292,-0.8302,-0.8277,-0.8282,-0.8287,-0.8286,-0.8298,-0.8302,-0.8312,-0.8312,-0.8311,0,-0.7749,-0.7769,-0.7825,-0.7845,-0.787,-0.7903,-0.7927,-0.7968,-0.7992,-0.8042,-0.8058,-0.8099,-0.8134,-0.8194,-0.8234,-0.8275,-0.8287,-0.8288,-0.8293,-0.8283,-0.8288,-0.8286,-0.8289,-0.8287,-0.8286,-0.8286,-0.8286,0,-0.7744,-0.7762,-0.7795,-0.7835,-0.7863,-0.7897,-0.7932,-0.7947,-0.7995,-0.8021,-0.8061,-0.8088,-0.8141,-0.8182,-0.8227,-0.8255,-0.8279,-0.8284,-0.8288,-0.8278,-0.8263,-0.8272,-0.8273,-0.8283,-0.8284,-0.8284,-0.8284,-0.8284,-0.7734,-0.7753,-0.7796,-0.7832,-0.7863,-0.7895,-0.7918,-0.7951,-0.7985,-0.8031,-0.8053,-0.8093,-0.8136,-0.82,-0.8227,-0.8259,-0.8266,-0.8272,-0.8273,-0.8274,-0.8272,-0.8257,-0.8268,-0.8268,-0.8268,-0.8268,-0.8268,0,-0.7731,-0.776,-0.7793,-0.784,-0.7869,-0.7888,-0.7928,-0.7951,-0.7986,-0.8023,-0.8057,-0.8103,-0.8143,-0.8186,-0.8229,-0.8246,-0.8258,-0.8256,-0.8255,-0.8262,-0.8263,-0.8256,-0.8246,-0.8246,-0.8246,-0.8246,-0.8246,-0.8246,-0.7732,-0.7766,-0.7789,-0.7839,-0.7869,-0.7907,-0.7928,-0.7959,-0.7989,-0.8039,-0.8071,-0.8099,-0.814,-0.8185,-0.8223,-0.8235,-0.8249,-0.8244,-0.8259,-0.826,-0.8261,-0.8263,-0.8256,-0.8247,-0.8247,-0.8255,-0.8255,-0.8255]},{"header":{"parameterUnit":"m.s-1","parameterCategory":1,"la1":30.2991,"la2":30.254,"lo1":-89.0895,"lo2":-89.0444,"dy":0.0017,"dx":0.0017,"nx":28,"ny":28,"refTime":"2025-06-11T03:00:00:Z","depth":0,"parameterNumber":3,"parameterNumberName":"V-component_of_WINDS"},"data":[0,0,0,0,0,0,0,0,0,0,0,0,0,0,0,0,0,0,0,0,0,0,0,0,0,0,0,0,0,0,0,0,0,0,0,0,0,0,0,0,0,0,0,0,0,0,0,0,0,0,0,0,0,0,0,0,0,0,3.5688,3.5688,0,3.5702,3.5703,3.5703,3.5634,3.5633,3.5631,3.5629,3.5642,3.5644,3.5646,0,0,0,0,0,0,0,0,0,0,0,0,0,3.56,3.5602,3.5688,3.5688,3.5689,3.5702,3.5703,3.5703,3.5635,3.5632,3.563,3.5628,3.5641,3.5644,3.5646,0,0,0,0,0,0,0,0,0,0,0,0,0,3.5629,3.5603,3.5688,3.5656,3.5654,3.5702,3.5703,3.5703,3.5635,3.5632,3.5629,3.5627,3.564,3.5644,3.5647,3.5726,0,0,3.5657,3.5658,0,0,0,0,0,0,0,0,3.5627,3.5632,3.5661,3.5659,3.5656,3.5664,3.5676,3.5711,3.5636,3.5642,3.5629,3.5625,3.5652,3.5654,3.5663,3.5727,3.5727,3.5657,3.5659,3.5661,3.5662,0,0,0,0,0,0,0,3.5626,3.5631,3.5694,3.5661,3.5658,3.5641,3.5642,3.5683,3.5663,3.5642,3.5637,3.5639,3.5649,3.566,3.5663,3.5728,3.5657,3.566,3.5662,3.5663,3.5855,3.5858,0,0,0,0,0,0,3.5628,3.563,3.5693,3.5694,3.5634,3.5645,3.5646,3.5664,3.5663,3.566,3.5642,3.5636,3.5656,3.5659,3.5663,3.5753,3.5661,3.5664,3.5666,3.5852,3.5856,3.5859,0,0,0,0,0,0,3.5626,3.5634,3.5693,3.5661,3.5667,3.5649,3.5671,3.5666,3.5676,3.5663,3.5659,3.5656,3.5653,3.5658,3.571,3.5753,3.5665,3.5668,3.5848,3.5853,3.5858,3.5937,0,0,0,0,0,0,3.5624,3.5634,3.5665,3.5662,3.5669,3.5741,3.5673,3.5668,3.5682,3.5675,3.5675,3.5672,3.5651,3.5706,3.5714,3.5756,3.5671,3.5844,3.5851,3.5856,3.593,3.5944,3.5955,0,0,0,0,0,3.5621,3.5687,3.5667,3.5675,3.5707,3.5744,3.5747,3.5723,3.5686,3.5716,3.5707,3.5672,3.5748,3.5712,3.572,3.5764,3.5842,3.5849,3.5856,3.5925,3.5941,3.5955,0,0,0,0,0,0,3.5695,3.5686,3.5663,3.573,3.5738,3.5732,3.5769,3.5741,3.5759,3.5752,3.572,3.572,3.5778,3.5776,3.5737,3.584,3.5788,3.5797,3.5838,3.5853,3.5866,3.5864,3.5673,0,0,0,0,0,3.5719,3.575,3.5741,3.58,3.5806,3.5787,3.5802,3.5782,3.5789,3.5792,3.5787,3.5795,3.582,3.5837,3.5859,3.5931,3.5929,3.5965,3.5977,3.5988,3.5995,3.603,3.6045,3.5882,3.5882,3.5882,0,0,3.5769,3.5768,3.579,3.5815,3.5819,3.5851,3.579,3.5827,3.585,3.5797,3.5846,3.5843,3.5849,3.5911,3.5937,3.5911,3.604,3.5997,3.6005,3.6007,3.6039,3.6054,3.6068,3.5887,3.5886,3.5885,0,0,3.5875,3.5879,3.5928,3.5933,3.5939,3.5926,3.5938,3.5936,3.5932,3.5981,3.5941,3.5968,3.6013,3.6018,3.6026,3.6134,3.6102,3.6143,3.6207,3.6241,3.6254,3.6265,3.6302,3.6315,3.6151,3.6151,3.6151,0,3.5936,3.5983,3.5957,3.5995,3.6007,3.5961,3.601,3.6016,3.603,3.6038,3.6009,3.6063,3.6064,3.6125,3.6151,3.6161,3.6172,3.6141,3.6255,3.6266,3.6276,3.631,3.6324,3.6156,3.6155,3.6155,3.6154,0,3.6056,3.609,3.6128,3.6142,3.6158,3.6202,3.6181,3.6201,3.6179,3.6169,3.6218,3.6218,3.6239,3.6252,3.6232,3.631,3.6293,3.626,3.6207,3.6296,3.6328,3.6341,3.6162,3.6161,3.6159,3.6158,0,0,3.6209,3.6207,3.6221,3.6226,3.623,3.6254,3.6296,3.6316,3.6332,3.6343,3.6376,3.6414,3.6383,3.6393,3.6373,3.6404,3.6486,3.6367,3.6366,3.6387,3.657,3.6593,3.6608,3.6466,3.6469,3.6471,3.6568,0,3.6311,3.6381,3.6357,3.6428,3.6457,3.6414,3.6449,3.6455,3.6447,3.647,3.646,3.6487,3.6445,3.6451,3.648,3.647,3.6522,3.6463,3.6494,3.6496,3.6491,3.6625,3.665,3.6742,3.6581,3.6583,3.6584,0,3.6439,3.6455,3.6528,3.6525,3.6536,3.6569,3.6584,3.6608,3.6613,3.6604,3.6615,3.6588,3.6627,3.6576,3.6629,3.6589,3.66,3.6598,3.6601,3.6601,3.6544,3.6626,3.6771,3.6784,3.6604,3.6602,3.6601,0,3.654,3.6579,3.6627,3.6633,3.6632,3.6655,3.6655,3.6657,3.6671,3.6685,3.6692,3.6711,3.6721,3.6736,3.6714,3.668,3.6769,3.6717,3.6761,3.6762,3.678,3.6779,3.6926,3.6792,3.6792,3.6792,3.6792,0,3.6655,3.6701,3.6672,3.6702,3.6751,3.6724,3.6774,3.6769,3.6772,3.6798,3.6763,3.6789,3.6761,3.6784,3.6768,3.6812,3.6818,3.6811,3.6805,3.6813,3.6813,3.6818,3.681,3.6795,3.6795,3.6794,3.6793,0,3.6774,3.6757,3.6807,3.6801,3.68,3.6837,3.6832,3.6858,3.6848,3.6882,3.6889,3.6872,3.6897,3.6878,3.6903,3.6892,3.695,3.6937,3.6948,3.6944,3.6989,3.6984,3.7142,3.7161,3.7017,3.7019,3.702,0,3.6847,3.6881,3.6879,3.6895,3.6897,3.6923,3.6936,3.6911,3.6925,3.6933,3.6958,3.6981,3.6997,3.704,3.7029,3.7048,3.7033,3.7088,3.7036,3.7041,3.7031,3.7028,3.7031,3.7097,3.7099,3.7101,3.7102,0,3.6978,3.6968,3.6988,3.7005,3.7022,3.7034,3.7043,3.7058,3.7032,3.7051,3.7076,3.7089,3.7114,3.7136,3.7151,3.715,3.7121,3.7119,3.7129,3.7136,3.7139,3.7135,3.6974,3.7114,3.7113,3.7112,3.7111,3.7111,3.7075,3.7102,3.7104,3.7128,3.7132,3.7141,3.7165,3.7157,3.7178,3.7196,3.7181,3.721,3.7213,3.7231,3.7234,3.7256,3.7234,3.725,3.7254,3.7258,3.7263,3.7138,3.7259,3.7259,3.7259,3.7258,3.7258,0,3.7202,3.7201,3.7223,3.7236,3.7254,3.7226,3.7235,3.7251,3.7278,3.7283,3.73,3.7328,3.7349,3.7341,3.7359,3.7379,3.7366,3.7384,3.7381,3.7381,3.7283,3.7271,3.7394,3.7394,3.7394,3.7394,3.7394,3.7394,3.7269,3.7313,3.7303,3.7349,3.7347,3.7376,3.7383,3.7391,3.7395,3.7428,3.7445,3.744,3.7439,3.7457,3.7475,3.7471,3.7479,3.7502,3.7494,3.7402,3.7388,3.7375,3.7363,3.7504,3.7504,3.7589,3.759,3.759]}]]